Satellite: NOAA-17
Catalog number: 27453
Epoch time:      11034.48639673
Element set:     172
Inclination:      098.3999 deg
RA of node:       080.2222 deg
Eccentricity:    0.0011843
Arg of perigee:   176.2599 deg
Mean anomaly:     183.8671 deg
Mean motion:   14.24233316 rev/day
Decay rate:       1.63e-06 rev/day^2
Epoch rev:           44762
Checksum:              319

Satellite: NOAA-18
Catalog number: 28654
Epoch time:      11034.33438001
Element set:     657
Inclination:      098.9799 deg
RA of node:       345.2687 deg
Eccentricity:    0.0014973
Arg of perigee:   120.0957 deg
Mean anomaly:     240.1698 deg
Mean motion:   14.11434211 rev/day
Decay rate:       3.34e-06 rev/day^2
Epoch rev:           29404
Checksum:              308

Satellite: NOAA-19
Catalog number: 33591
Epoch time:      11034.30204003
Element set:     850
Inclination:      098.8145 deg
RA of node:       336.7972 deg
Eccentricity:    0.0014327
Arg of perigee:   358.7705 deg
Mean anomaly:     001.3431 deg
Mean motion:   14.11127267 rev/day
Decay rate:       1.38e-06 rev/day^2
Epoch rev:           10250
Checksum:              263

/EX
SB KEPS @ AMSAT  $ORB11034.M
Orbital Elements  11034.MISC

HR AMSAT ORBITAL ELEMENTS FOR MANNED AND MISCELLANEOUS SATELLITES
FROM WA5QGD FORT WORTH,TX February 3, 2011
Send Subscribe/unsubscribe to KEPS at http://www.amsat.org/mailman/listinfo/kep
BID: ORB11034.M
TO ALL RADIO AMATEURS BT

Satellite: HUBBLE
Catalog number: 20580
Epoch time:      11032.56653249
Element set:     708
Inclination:      028.4690 deg
RA of node:       182.2247 deg
Eccentricity:    0.0003378
Arg of perigee:   123.6925 deg
Mean anomaly:     236.4065 deg
Mean motion:   15.01149434 rev/day
Decay rate:       4.23e-06 rev/day^2
Epoch rev:           93925
Checksum:              285

Satellite: ISS
Catalog number: 25544
Epoch time:      11034.83945877
Element set:     764
Inclination:      051.6455 deg
RA of node:       124.6609 deg
Eccentricity:    0.0003537
Arg of perigee:   271.6432 deg
Mean anomaly:     188.8970 deg
Mean motion:   15.72349970 rev/day
Decay rate:     1.8784e-04 rev/day^2
Epoch rev:           69991
Checksum:              351

Satellite: CO-58
Catalog number: 28895
Epoch time:      11033.60671841
Element set:    0791
Inclination:      097.9876 deg
RA of node:       275.0470 deg
Eccentricity:    0.0016914
Arg of perigee:   285.4289 deg
Mean anomaly:     074.5040 deg
Mean motion:   14.60001761 rev/day
Decay rate:       2.32e-06 rev/day^2
Epoch rev:           28060
Checksum:              312

Satellite: FALCON
Catalog number: 30776
Epoch time:      11034.51352051
Element set:      14
Inclination:      035.4326 deg
RA of node:       079.4249 deg
Eccentricity:    0.0001322
Arg of perigee:   359.0701 deg
Mean anomaly:     001.0013 deg
Mean motion:   15.04089396 rev/day
Decay rate:       5.73e-06 rev/day^2
Epoch rev:           21490
Checksum:              240

Satellite: MAST
Catalog number: 31126
Epoch time:      11033.74753255
Element set:    0076
Inclination:      097.9112 deg
RA of node:       068.4811 deg
Eccentricity:    0.0093740
Arg of perigee:   228.6628 deg
Mean anomaly:     130.6475 deg
Mean motion:   14.53668296 rev/day
Decay rate:       -4.0e-08 rev/day^2
Epoch rev:           20155
Checksum:              291

Satellite: CAPE1
Catalog number: 31130
Epoch time:      11034.64054047
Element set:      95
Inclination:      097.9122 deg
RA of node:       066.3002 deg
Eccentricity:    0.0101819
Arg of perigee:   235.6055 deg
Mean anomaly:     123.5479 deg
Mean motion:   14.52285571 rev/day
Decay rate:        8.0e-07 rev/day^2
Epoch rev:           20125
Checksum:              254

Satellite: COMPASS
Catalog number: 32787
Epoch time:      11034.75379499
Element set:     900
Inclination:      097.8650 deg
RA of node:       100.9817 deg
Eccentricity:    0.0014682
Arg of perigee:   249.7179 deg
Mean anomaly:     110.2448 deg
Mean motion:   14.82128135 rev/day
Decay rate:       7.77e-06 rev/day^2
Epoch rev:           14979
Checksum:              334

Satellite: AAUSAT2
Catalog number: 32788
Epoch time:      11034.66570646
Element set:     888
Inclination:      097.8659 deg
RA of node:       101.0795 deg
Eccentricity:    0.0014603
Arg of perigee:   252.1817 deg
Mean anomaly:     107.7811 deg
Mean motion:   14.82287508 rev/day
Decay rate:       3.58e-06 rev/day^2
Epoch rev:           14979
Checksum:              335

Satellite: DO-64
Catalog number: 32789
Epoch time:      11033.76429568
Element set:    0906
Inclination:      097.8747 deg
RA of node:       100.9673 deg
Eccentricity:    0.0014544
Arg of perigee:   252.0872 deg
Mean anomaly:     107.8750 deg
Mean motion:   14.82571621 rev/day
Decay rate:       9.23e-06 rev/day^2
Epoch rev:           14966
Checksum:              336

Satellite: CO-66
Catalog number: 32791
Epoch time:      11034.74497573
Element set:     890
Inclination:      097.8657 deg
RA of node:       100.9497 deg
Eccentricity:    0.0015020
Arg of perigee:   248.8748 deg
Mean anomaly:     111.0854 deg
Mean motion:   14.81870645 rev/day
Decay rate:       5.92e-06 rev/day^2
Epoch rev:           14974
Checksum:              342

